Location: Newark
(43.6583°N, 1.6617°E)
Time: 20:35:42
(UTC+00:00)

Transit 4A - Pass Details

Date: 03 September 2019
Orbit: 867 x 978 km, 66.8° (Epoch: 23 October)

Event Time Altitude Azimuth Distance (km) Brightness Sun altitude
Rises 23:24:50 0° 331° (NNW) 3,626 11.8 -38.6°
Reaches altitude 10° 23:27:29 10° 336° (NNW) 2,662 10.9 -38.7°
Enters shadow 23:31:06 34° 355° (N) 1,494 9.3 -38.7°
Maximum altitude 23:33:32 53° 53° (NE) 1,121 - -38.8°
Drops below altitude 10° 23:39:22 10° 130° (SE) 2,572 - -38.9°
Sets 23:41:53 0° 135° (SE) 3,493 - -38.9°
